When you browse on this site, cookies collect data to enhance your experience and personalize the content and advertising you see.
Visit our Privacy Policy to learn more. By continuing to use the site, you agree to this use of cookies and data.

Meteo orario Tuson

Oggi, 11 Luglio, Sabato

Tempo Temperatura Precipitazioni Vento Pressione Umidità
00:00 +36°C° 0.4 mm 3 m/s 697 mm Hg 29%
01:00 +35°C° 0.4 mm 2 m/s 697 mm Hg 31%
02:00 +34°C° 0.4 mm 2 m/s 697 mm Hg 34%
03:00 +34°C° 0.1 mm 2 m/s 697 mm Hg 35%
04:00 +34°C° 0.1 mm 2 m/s 697 mm Hg 36%
05:00 +32°C° 0.1 mm 2 m/s 697 mm Hg 37%
06:00 +34°C° 0 mm 2 m/s 698 mm Hg 36%
07:00 +35°C° 0 mm 2 m/s 698 mm Hg 34%
08:00 +35°C° 0 mm 2 m/s 699 mm Hg 33%
09:00 +36°C° 0 mm 2 m/s 699 mm Hg 31%
10:00 +38°C° 0 mm 2 m/s 699 mm Hg 28%
11:00 +39°C° 0 mm 3 m/s 699 mm Hg 25%
12:00 +40°C° 0 mm 3 m/s 698 mm Hg 23%
13:00 +42°C° 0 mm 3 m/s 698 mm Hg 21%
14:00 +43°C° 0 mm 4 m/s 697 mm Hg 19%
15:00 +44°C° 0 mm 4 m/s 697 mm Hg 19%
16:00 +44°C° 0 mm 4 m/s 697 mm Hg 18%
17:00 +46°C° 0 mm 5 m/s 697 mm Hg 17%
18:00 +45°C° 0.1 mm 5 m/s 697 mm Hg 18%
19:00 +44°C° 0.1 mm 6 m/s 697 mm Hg 19%
20:00 +42°C° 0.1 mm 6 m/s 697 mm Hg 21%
21:00 +41°C° 0 mm 5 m/s 697 mm Hg 22%
22:00 +39°C° 0 mm 3 m/s 697 mm Hg 23%
23:00 +37°C° 0 mm 1 m/s 697 mm Hg 25%

Domani, 12 Luglio, Domenica

Tempo Temperatura Precipitazioni Vento Pressione Umidità
00:00 +36°C° 0 mm 1 m/s 697 mm Hg 26%
01:00 +35°C° 0 mm 1 m/s 697 mm Hg 27%
02:00 +35°C° 0 mm 1 m/s 696 mm Hg 29%
03:00 +34°C° 0 mm 1 m/s 696 mm Hg 31%
04:00 +34°C° 0 mm 2 m/s 696 mm Hg 33%
05:00 +32°C° 0 mm 2 m/s 696 mm Hg 36%
06:00 +34°C° 0 mm 2 m/s 696 mm Hg 34%
07:00 +34°C° 0 mm 1 m/s 697 mm Hg 32%
08:00 +35°C° 0 mm 1 m/s 697 mm Hg 30%
09:00 +36°C° 0 mm 1 m/s 697 mm Hg 27%
10:00 +39°C° 0 mm 1 m/s 697 mm Hg 24%
11:00 +41°C° 0 mm 1 m/s 697 mm Hg 21%
12:00 +42°C° 0 mm 2 m/s 696 mm Hg 19%
13:00 +43°C° 0 mm 2 m/s 696 mm Hg 17%
14:00 +45°C° 0 mm 3 m/s 696 mm Hg 15%
15:00 +46°C° 0 mm 2 m/s 695 mm Hg 13%
16:00 +46°C° 0 mm 2 m/s 695 mm Hg 12%
17:00 +47°C° 0 mm 2 m/s 694 mm Hg 11%
18:00 +45°C° 0 mm 3 m/s 694 mm Hg 13%
19:00 +44°C° 0 mm 4 m/s 694 mm Hg 14%
20:00 +43°C° 0 mm 5 m/s 694 mm Hg 16%
21:00 +42°C° 0 mm 4 m/s 695 mm Hg 19%
22:00 +40°C° 0 mm 4 m/s 695 mm Hg 22%
23:00 +38°C° 0 mm 3 m/s 695 mm Hg 26%

Dopodomani, 13 Luglio, Lunedi

Tempo Temperatura Precipitazioni Vento Pressione Umidità
00:00 +37°C° 0 mm 3 m/s 695 mm Hg 27%
01:00 +36°C° 0 mm 2 m/s 695 mm Hg 28%
02:00 +35°C° 0 mm 2 m/s 695 mm Hg 30%
03:00 +35°C° 0 mm 2 m/s 695 mm Hg 31%
04:00 +34°C° 0 mm 2 m/s 695 mm Hg 32%
05:00 +32°C° 0 mm 1 m/s 695 mm Hg 34%
06:00 +33°C° 0 mm 1 m/s 695 mm Hg 32%
07:00 +34°C° 0 mm 1 m/s 696 mm Hg 30%
08:00 +35°C° 0 mm 1 m/s 697 mm Hg 28%
09:00 +37°C° 0.1 mm 2 m/s 697 mm Hg 26%
10:00 +39°C° 0.1 mm 3 m/s 697 mm Hg 24%
11:00 +40°C° 0.1 mm 3 m/s 697 mm Hg 22%
12:00 +42°C° 0 mm 4 m/s 697 mm Hg 20%
13:00 +43°C° 0 mm 4 m/s 696 mm Hg 19%
14:00 +44°C° 0 mm 4 m/s 696 mm Hg 17%
15:00 +45°C° 0 mm 5 m/s 696 mm Hg 17%
16:00 +45°C° 0 mm 5 m/s 696 mm Hg 17%
17:00 +45°C° 0 mm 6 m/s 695 mm Hg 17%
18:00 +41°C° 0.6 mm 5 m/s 695 mm Hg 25%
19:00 +37°C° 0.6 mm 4 m/s 696 mm Hg 32%
20:00 +34°C° 0.6 mm 4 m/s 696 mm Hg 40%
21:00 +34°C° 0 mm 3 m/s 696 mm Hg 39%
22:00 +34°C° 0 mm 2 m/s 696 mm Hg 38%
23:00 +34°C° 0 mm 1 m/s 696 mm Hg 37%

14 Luglio, Martedi

Tempo Temperatura Precipitazioni Vento Pressione Umidità
00:00 +33°C° 0 mm 1 m/s 696 mm Hg 39%
01:00 +33°C° 0 mm 1 m/s 696 mm Hg 40%
02:00 +32°C° 0 mm 2 m/s 696 mm Hg 41%
03:00 +32°C° 0 mm 1 m/s 696 mm Hg 43%
04:00 +31°C° 0 mm 1 m/s 696 mm Hg 45%
05:00 +31°C° 0 mm 1 m/s 696 mm Hg 46%
06:00 +32°C° 0 mm 1 m/s 697 mm Hg 43%
07:00 +33°C° 0 mm 1 m/s 697 mm Hg 40%
08:00 +34°C° 0 mm 1 m/s 698 mm Hg 36%
09:00 +35°C° 0 mm 1 m/s 698 mm Hg 33%
10:00 +38°C° 0 mm 2 m/s 698 mm Hg 29%
11:00 +39°C° 0 mm 2 m/s 698 mm Hg 25%
12:00 +40°C° 0 mm 2 m/s 697 mm Hg 22%
13:00 +41°C° 0 mm 2 m/s 697 mm Hg 19%
14:00 +43°C° 0 mm 3 m/s 697 mm Hg 16%
15:00 +43°C° 0 mm 4 m/s 696 mm Hg 16%
16:00 +45°C° 0 mm 5 m/s 696 mm Hg 15%
17:00 +45°C° 0 mm 6 m/s 695 mm Hg 14%
18:00 +44°C° 0 mm 6 m/s 695 mm Hg 16%
19:00 +41°C° 0 mm 5 m/s 696 mm Hg 18%
20:00 +40°C° 0 mm 5 m/s 696 mm Hg 20%
21:00 +38°C° 0 mm 4 m/s 696 mm Hg 24%
22:00 +37°C° 0 mm 3 m/s 696 mm Hg 28%
23:00 +35°C° 0 mm 2 m/s 697 mm Hg 31%

15 Luglio, Mercoledi

Tempo Temperatura Precipitazioni Vento Pressione Umidità
00:00 +35°C° 0 mm 2 m/s 697 mm Hg 34%
01:00 +34°C° 0 mm 3 m/s 696 mm Hg 38%
02:00 +33°C° 0 mm 3 m/s 696 mm Hg 41%
03:00 +32°C° 0 mm 2 m/s 696 mm Hg 43%
04:00 +31°C° 0 mm 2 m/s 696 mm Hg 46%
05:00 +30°C° 0 mm 1 m/s 696 mm Hg 48%
06:00 +31°C° 0 mm 1 m/s 696 mm Hg 45%
07:00 +32°C° 0 mm 1 m/s 697 mm Hg 43%
08:00 +33°C° 0 mm 1 m/s 697 mm Hg 40%
09:00 +34°C° 0 mm 1 m/s 697 mm Hg 35%
10:00 +36°C° 0 mm 1 m/s 697 mm Hg 31%
11:00 +37°C° 0 mm 1 m/s 697 mm Hg 27%
12:00 +39°C° 0 mm 2 m/s 696 mm Hg 24%
13:00 +40°C° 0 mm 2 m/s 696 mm Hg 21%
14:00 +42°C° 0 mm 3 m/s 695 mm Hg 17%
15:00 +43°C° 0 mm 3 m/s 695 mm Hg 17%
16:00 +43°C° 0 mm 3 m/s 694 mm Hg 16%
17:00 +43°C° 0 mm 3 m/s 694 mm Hg 16%
18:00 +42°C° 0 mm 3 m/s 694 mm Hg 17%
19:00 +40°C° 0 mm 2 m/s 695 mm Hg 19%
20:00 +39°C° 0 mm 2 m/s 695 mm Hg 21%
21:00 +38°C° 0 mm 2 m/s 695 mm Hg 24%
22:00 +37°C° 0 mm 2 m/s 695 mm Hg 27%
23:00 +36°C° 0 mm 2 m/s 696 mm Hg 30%

16 Luglio, Giovedi

Tempo Temperatura Precipitazioni Vento Pressione Umidità
00:00 +35°C° 0 mm 2 m/s 695 mm Hg 32%
01:00 +34°C° 0 mm 2 m/s 695 mm Hg 34%
02:00 +34°C° 0 mm 2 m/s 695 mm Hg 36%
03:00 +32°C° 0 mm 2 m/s 695 mm Hg 37%
04:00 +32°C° 0 mm 1 m/s 695 mm Hg 38%
05:00 +32°C° 0 mm 1 m/s 695 mm Hg 39%
06:00 +33°C° 0 mm 1 m/s 696 mm Hg 38%
07:00 +33°C° 0 mm 1 m/s 696 mm Hg 36%
08:00 +34°C° 0 mm 1 m/s 696 mm Hg 34%
09:00 +36°C° 0 mm 1 m/s 696 mm Hg 31%
10:00 +37°C° 0 mm 1 m/s 696 mm Hg 28%
11:00 +39°C° 0 mm 2 m/s 696 mm Hg 25%
12:00 +40°C° 0 mm 2 m/s 696 mm Hg 23%
13:00 +41°C° 0 mm 2 m/s 696 mm Hg 22%
14:00 +42°C° 0 mm 2 m/s 695 mm Hg 20%
15:00 +38°C° 0.9 mm 4 m/s 695 mm Hg 31%
16:00 +35°C° 0.9 mm 6 m/s 694 mm Hg 41%
17:00 +30°C° 0.9 mm 7 m/s 694 mm Hg 52%
18:00 +30°C° 2.1 mm 7 m/s 695 mm Hg 52%
19:00 +29°C° 2.1 mm 6 m/s 696 mm Hg 52%
20:00 +29°C° 2.1 mm 6 m/s 696 mm Hg 52%
21:00 +29°C° 0.1 mm 5 m/s 697 mm Hg 51%
22:00 +30°C° 0.1 mm 5 m/s 697 mm Hg 50%
23:00 +30°C° 0.1 mm 4 m/s 697 mm Hg 49%
Mostrare altro